When you browse on this site, cookies collect data to enhance your experience and personalize the content and advertising you see.
Visit our Privacy Policy to learn more. By continuing to use the site, you agree to this use of cookies and data.

Stündliche Wetter Bolshie Galashki

Heute, 27 September, Sonntag

Zeit Temperatur Niederschläge Wind Luftdruck Luftfeuchtigkeit
00:00 +7°C° 0 mm 1 m/S 738 mmHg 94%
01:00 +7°C° 0 mm 1 m/S 738 mmHg 95%
02:00 +7°C° 0 mm 1 m/S 739 mmHg 95%
03:00 +6°C° 0 mm 1 m/S 739 mmHg 95%
04:00 +6°C° 0 mm 1 m/S 739 mmHg 96%
05:00 +6°C° 0 mm 1 m/S 739 mmHg 96%
06:00 +6°C° 0 mm 1 m/S 739 mmHg 96%
07:00 +6°C° 0 mm 1 m/S 739 mmHg 97%
08:00 +8°C° 0 mm 1 m/S 739 mmHg 91%
09:00 +9°C° 0 mm 2 m/S 739 mmHg 85%
10:00 +12°C° 0 mm 2 m/S 739 mmHg 79%
11:00 +13°C° 0 mm 2 m/S 739 mmHg 74%
12:00 +13°C° 0 mm 3 m/S 739 mmHg 69%
13:00 +16°C° 0 mm 3 m/S 739 mmHg 65%
14:00 +14°C° 0 mm 3 m/S 739 mmHg 66%
15:00 +14°C° 0 mm 3 m/S 739 mmHg 68%
16:00 +14°C° 0 mm 3 m/S 739 mmHg 69%
17:00 +13°C° 0 mm 2 m/S 738 mmHg 77%
18:00 +10°C° 0 mm 2 m/S 738 mmHg 84%
19:00 +8°C° 0 mm 2 m/S 738 mmHg 92%
20:00 +8°C° 0 mm 2 m/S 738 mmHg 93%
21:00 +7°C° 0 mm 2 m/S 738 mmHg 94%
22:00 +8°C° 0 mm 1 m/S 738 mmHg 95%
23:00 +8°C° 0 mm 1 m/S 738 mmHg 95%

Morgen, 28 September, Montag

Zeit Temperatur Niederschläge Wind Luftdruck Luftfeuchtigkeit
00:00 +7°C° 0 mm 1 m/S 738 mmHg 95%
01:00 +7°C° 0 mm 1 m/S 738 mmHg 96%
02:00 +7°C° 0 mm 1 m/S 738 mmHg 96%
03:00 +7°C° 0 mm 1 m/S 738 mmHg 96%
04:00 +6°C° 0 mm 1 m/S 739 mmHg 96%
05:00 +6°C° 0 mm 1 m/S 739 mmHg 97%
06:00 +6°C° 0 mm 1 m/S 738 mmHg 97%
07:00 +6°C° 0 mm 1 m/S 738 mmHg 97%
08:00 +7°C° 0 mm 2 m/S 739 mmHg 90%
09:00 +9°C° 0 mm 2 m/S 739 mmHg 83%
10:00 +12°C° 0 mm 2 m/S 739 mmHg 76%
11:00 +13°C° 0 mm 2 m/S 739 mmHg 72%
12:00 +15°C° 0 mm 2 m/S 739 mmHg 68%
13:00 +16°C° 0 mm 2 m/S 739 mmHg 63%
14:00 +15°C° 0 mm 2 m/S 739 mmHg 66%
15:00 +15°C° 0 mm 2 m/S 739 mmHg 69%
16:00 +15°C° 0 mm 2 m/S 739 mmHg 72%
17:00 +13°C° 0 mm 1 m/S 739 mmHg 79%
18:00 +12°C° 0 mm 1 m/S 739 mmHg 86%
19:00 +10°C° 0 mm 1 m/S 739 mmHg 93%
20:00 +9°C° 0 mm 1 m/S 739 mmHg 93%
21:00 +9°C° 0 mm 1 m/S 740 mmHg 94%
22:00 +7°C° 0 mm 0 m/S 740 mmHg 94%
23:00 +7°C° 0 mm 0 m/S 740 mmHg 95%

übermorgen, 29 September, Dienstag

Zeit Temperatur Niederschläge Wind Luftdruck Luftfeuchtigkeit
00:00 +7°C° 0 mm 0 m/S 740 mmHg 95%
01:00 +7°C° 0 mm 0 m/S 740 mmHg 95%
02:00 +6°C° 0 mm 0 m/S 740 mmHg 95%
03:00 +6°C° 0 mm 0 m/S 740 mmHg 95%
04:00 +6°C° 0 mm 0 m/S 740 mmHg 96%
05:00 +6°C° 0 mm 0 m/S 740 mmHg 96%
06:00 +6°C° 0 mm 0 m/S 741 mmHg 96%
07:00 +6°C° 0 mm 0 m/S 741 mmHg 96%
08:00 +8°C° 0 mm 0 m/S 741 mmHg 91%
09:00 +10°C° 0 mm 0 m/S 741 mmHg 86%
10:00 +11°C° 0 mm 0 m/S 741 mmHg 80%
11:00 +13°C° 0 mm 0 m/S 741 mmHg 75%
12:00 +14°C° 0 mm 0 m/S 741 mmHg 70%
13:00 +15°C° 0 mm 0 m/S 741 mmHg 65%
14:00 +15°C° 0 mm 0 m/S 741 mmHg 68%
15:00 +15°C° 0 mm 1 m/S 741 mmHg 71%
16:00 +15°C° 0 mm 1 m/S 740 mmHg 73%
17:00 +13°C° 0 mm 1 m/S 740 mmHg 79%
18:00 +12°C° 0 mm 1 m/S 740 mmHg 85%
19:00 +9°C° 0 mm 0 m/S 740 mmHg 91%
20:00 +9°C° 0 mm 0 m/S 740 mmHg 92%
21:00 +8°C° 0 mm 0 m/S 740 mmHg 92%
22:00 +8°C° 0 mm 0 m/S 740 mmHg 93%
23:00 +7°C° 0 mm 0 m/S 740 mmHg 93%

30 September, Mittwoch

Zeit Temperatur Niederschläge Wind Luftdruck Luftfeuchtigkeit
00:00 +8°C° 0 mm 1 m/S 740 mmHg 94%
01:00 +8°C° 0 mm 1 m/S 740 mmHg 94%
02:00 +7°C° 0 mm 1 m/S 739 mmHg 94%
03:00 +7°C° 0 mm 1 m/S 739 mmHg 94%
04:00 +7°C° 0 mm 1 m/S 739 mmHg 94%
05:00 +7°C° 0 mm 1 m/S 739 mmHg 95%
06:00 +7°C° 0 mm 1 m/S 739 mmHg 95%
07:00 +7°C° 0 mm 1 m/S 739 mmHg 95%
08:00 +9°C° 0 mm 1 m/S 739 mmHg 88%
09:00 +11°C° 0 mm 1 m/S 739 mmHg 81%
10:00 +13°C° 0 mm 2 m/S 739 mmHg 73%
11:00 +14°C° 0 mm 2 m/S 739 mmHg 68%
12:00 +15°C° 0 mm 2 m/S 739 mmHg 64%
13:00 +16°C° 0 mm 2 m/S 739 mmHg 59%
14:00 +16°C° 0 mm 2 m/S 739 mmHg 62%
15:00 +15°C° 0 mm 2 m/S 739 mmHg 65%
16:00 +15°C° 0 mm 2 m/S 738 mmHg 68%
17:00 +13°C° 0 mm 1 m/S 738 mmHg 76%
18:00 +11°C° 0 mm 1 m/S 738 mmHg 83%
19:00 +9°C° 0 mm 1 m/S 738 mmHg 91%
20:00 +9°C° 0 mm 1 m/S 738 mmHg 91%
21:00 +8°C° 0 mm 1 m/S 738 mmHg 92%
22:00 +8°C° 0 mm 1 m/S 738 mmHg 92%
23:00 +7°C° 0 mm 1 m/S 738 mmHg 92%

1 Oktober, Donnerstag

Zeit Temperatur Niederschläge Wind Luftdruck Luftfeuchtigkeit
00:00 +7°C° 0 mm 1 m/S 738 mmHg 92%
01:00 +7°C° 0 mm 1 m/S 738 mmHg 92%
02:00 +7°C° 0 mm 1 m/S 738 mmHg 92%
03:00 +7°C° 0 mm 1 m/S 738 mmHg 92%
04:00 +6°C° 0 mm 1 m/S 738 mmHg 91%
05:00 +6°C° 0 mm 0 m/S 738 mmHg 90%
06:00 +6°C° 0 mm 0 m/S 738 mmHg 89%
07:00 +6°C° 0 mm 0 m/S 738 mmHg 88%
08:00 +8°C° 0 mm 0 m/S 739 mmHg 80%
09:00 +10°C° 0 mm 0 m/S 739 mmHg 72%
10:00 +12°C° 0 mm 0 m/S 739 mmHg 64%
11:00 +13°C° 0 mm 0 m/S 739 mmHg 60%
12:00 +14°C° 0 mm 0 m/S 739 mmHg 56%
13:00 +15°C° 0 mm 0 m/S 739 mmHg 52%
14:00 +15°C° 0 mm 0 m/S 738 mmHg 56%
15:00 +14°C° 0 mm 0 m/S 738 mmHg 59%
16:00 +14°C° 0 mm 0 m/S 738 mmHg 63%
17:00 +12°C° 0 mm 0 m/S 738 mmHg 69%
18:00 +10°C° 0 mm 0 m/S 738 mmHg 76%
19:00 +8°C° 0 mm 0 m/S 738 mmHg 83%
20:00 +8°C° 0 mm 0 m/S 738 mmHg 85%
21:00 +7°C° 0 mm 0 m/S 738 mmHg 86%
22:00 +7°C° 0 mm 0 m/S 738 mmHg 88%
23:00 +7°C° 0 mm 0 m/S 738 mmHg 89%

2 Oktober, Freitag

Zeit Temperatur Niederschläge Wind Luftdruck Luftfeuchtigkeit
00:00 +6°C° 0 mm 0 m/S 738 mmHg 89%
01:00 +6°C° 0 mm 0 m/S 738 mmHg 90%
02:00 +6°C° 0 mm 0 m/S 738 mmHg 90%
03:00 +5°C° 0 mm 0 m/S 738 mmHg 91%
04:00 +5°C° 0 mm 0 m/S 738 mmHg 92%
05:00 +5°C° 0 mm 0 m/S 738 mmHg 92%
06:00 +5°C° 0 mm 0 m/S 738 mmHg 92%
07:00 +5°C° 0 mm 0 m/S 738 mmHg 92%
08:00 +8°C° 0 mm 1 m/S 738 mmHg 84%
09:00 +10°C° 0 mm 1 m/S 738 mmHg 75%
10:00 +12°C° 0 mm 1 m/S 738 mmHg 67%
11:00 +13°C° 0 mm 1 m/S 738 mmHg 62%
12:00 +14°C° 0 mm 1 m/S 738 mmHg 58%
13:00 +15°C° 0 mm 1 m/S 737 mmHg 53%
14:00 +15°C° 0 mm 1 m/S 737 mmHg 58%
15:00 +14°C° 0 mm 1 m/S 737 mmHg 63%
16:00 +14°C° 0 mm 1 m/S 737 mmHg 67%
17:00 +12°C° 0 mm 1 m/S 737 mmHg 75%
18:00 +10°C° 0 mm 1 m/S 737 mmHg 83%
19:00 +9°C° 0 mm 1 m/S 737 mmHg 91%
20:00 +8°C° 0 mm 1 m/S 736 mmHg 92%
21:00 +8°C° 0 mm 1 m/S 736 mmHg 93%
22:00 +7°C° 0 mm 1 m/S 736 mmHg 94%
23:00 +7°C° 0 mm 1 m/S 736 mmHg 94%
Mehr zeigen